Location: ???????????
(55.5758°N, 38.4970°E)
Time: 18:14:46
(UTC+00:00)

Cosmos 2233 Rocket - Pass Details

Date: 15 November 2025
Orbit: 952 x 990 km, 82.9° (Epoch: 14 December)

Event Time Altitude Azimuth Distance (km) Brightness Sun altitude
Rises 02:37:45 0° 346° (NNW) 3,714 6.9 -19.8°
Reaches altitude 10° 02:40:24 10° 340° (NNW) 2,759 6.1 -19.4°
Maximum altitude 02:46:18 43° 271° (W) 1,346 4.3 -18.6°
Drops below altitude 10° 02:52:08 10° 202° (SSW) 2,721 6.2 -17.8°
Sets 02:54:44 0° 196° (SSW) 3,659 6.9 -17.4°
